Change the Weather History Date:

Wednesday, October 31, 2012

  Actual Average Record
Temperature  
Mean Temperature 38 °F 41 °F  
Max Temperature 42 °F 49 °F 79 °F (1933)
Min Temperature 34 °F 32 °F 7 °F (1925)
Degree Days  
Heating Degree Days 27 24  
Month to date heating degree days 538 597  
Since 1 July heating degree days 841 978  
Cooling Degree Days 0 0  
Month to date cooling degree days 0 2  
Year to date cooling degree days 547 287  
Moisture  
Dew Point 33 °F    
Average Humidity 81    
Maximum Humidity 89    
Minimum Humidity 73    
Precipitation  
Precipitation T in 0.08 in 0.88 in (1919)
Month to date precipitation 3.60 2.56  
Year to date precipitation 29.73 24.78  
Snow  
Snow 0.00 in 0.10 in 0.50 in (1932)
Month to date snowfall T 0.6  
Since 1 July snowfall T 0.6  
Snow Depth 0.00 in    
Sea Level Pressure  
Sea Level Pressure 29.64 in    
Wind  
Wind Speed 14 mph (NNW)    
Max Wind Speed 21 mph    
Max Gust Speed 29 mph    
Visibility 10 miles    
Events      
T = Trace of Precipitation, MM = Missing Value Source: NWS Daily Summary

Daily Weather History Graph

Daily Weather History Graph

Search for Another Location

Airport or City:

Trip Planner

Search our weather history database for the weather conditions in past years. The results will help you decide how hot, cold, wet, or windy it might be!

Date:

Astronomy

Oct. 31, 2012 Rise Set
Actual Time 8:15 AM EDT 6:28 PM EDT
Civil Twilight 7:44 AM EDT 6:58 PM EDT
Nautical Twilight 7:10 AM EDT 7:33 PM EDT
Astronomical Twilight 6:36 AM EDT 8:06 PM EDT
Moon 7:34 PM EDT (10/31) 9:59 AM EDT (10/31)
Length of Visible Light 11h 14m
Length of Day
10h 13m
Full, 97% of the Moon is Illuminated
Oct 31
Full
Nov 6
Last Quarter
Nov 13
New
Nov 20
First Quarter
Nov 28
Full

Hourly Weather History & Observations

Time (EDT) Temp. Windchill Dew Point Humidity Pressure Visibility Wind Dir Wind Speed Gust Speed Precip Events Conditions
12:53 AM 34.0 °F 24.2 °F 30.9 °F 89% 29.64 in 10.0 mi NNW 15.0 mph 20.7 mph N/A   Overcast
1:53 AM 35.1 °F 26.4 °F 30.9 °F 85% 29.63 in 10.0 mi NNW 12.7 mph 20.7 mph N/A   Overcast
2:53 AM 35.1 °F 27.9 °F 30.0 °F 82% 29.62 in 10.0 mi NNW 9.2 mph - N/A   Overcast
3:53 AM 34.0 °F 24.6 °F 30.9 °F 89% 29.62 in 10.0 mi NNW 13.8 mph 21.9 mph N/A   Overcast
4:53 AM 34.0 °F 24.6 °F 30.9 °F 89% 29.62 in 10.0 mi NNW 13.8 mph 21.9 mph N/A   Overcast
5:53 AM 35.1 °F 25.2 °F 30.0 °F 82% 29.62 in 10.0 mi NNW 16.1 mph 23.0 mph N/A   Overcast
6:53 AM 35.1 °F 26.4 °F 30.9 °F 85% 29.63 in 10.0 mi NNW 12.7 mph 21.9 mph N/A   Overcast
7:53 AM 35.1 °F 27.4 °F 32.0 °F 89% 29.63 in 5.0 mi NNW 10.4 mph 18.4 mph 0.00 in   Overcast
8:53 AM 36.0 °F 27.5 °F 32.0 °F 86% 29.63 in 10.0 mi NNW 12.7 mph 18.4 mph N/A   Overcast
9:53 AM 37.0 °F 28.9 °F 32.0 °F 82% 29.64 in 10.0 mi North 12.7 mph 20.7 mph N/A   Overcast
10:53 AM 37.9 °F 29.2 °F 33.1 °F 83% 29.63 in 10.0 mi NNW 15.0 mph 24.2 mph N/A   Overcast
11:53 AM 39.0 °F 29.9 °F 33.1 °F 79% 29.63 in 10.0 mi NNW 17.3 mph 25.3 mph N/A   Overcast
12:03 PM 39.2 °F 30.8 °F 33.8 °F 81% 29.60 in 10.0 mi NNW 15.0 mph 25.3 mph N/A   Overcast
12:53 PM 41.0 °F 32.5 °F 33.1 °F 73% 29.62 in 10.0 mi North 17.3 mph 23.0 mph N/A   Overcast
1:53 PM 39.9 °F 31.8 °F 34.0 °F 79% 29.63 in 10.0 mi NW 15.0 mph 20.7 mph N/A   Overcast
2:53 PM 41.0 °F 33.1 °F 34.0 °F 76% 29.63 in 10.0 mi NW 15.0 mph 21.9 mph N/A   Overcast
3:53 PM 39.9 °F 31.4 °F 34.0 °F 79% 29.63 in 10.0 mi NNW 16.1 mph 24.2 mph N/A   Overcast
4:53 PM 41.0 °F 33.5 °F 34.0 °F 76% 29.64 in 10.0 mi NW 13.8 mph 20.7 mph N/A   Overcast
5:01 PM 39.2 °F 31.6 °F 33.8 °F 81% 29.61 in 10.0 mi NW 12.7 mph 21.9 mph N/A   Overcast
5:53 PM 39.0 °F 30.3 °F 34.0 °F 82% 29.65 in 10.0 mi NW 16.1 mph 23.0 mph N/A   Overcast
6:06 PM 39.2 °F 29.8 °F 33.8 °F 81% 29.62 in 10.0 mi NW 18.4 mph 25.3 mph N/A   Overcast
6:53 PM 39.0 °F 30.6 °F 33.1 °F 79% 29.66 in 10.0 mi NW 15.0 mph 24.2 mph N/A   Overcast
7:53 PM 37.9 °F 30.5 °F 33.1 °F 83% 29.67 in 10.0 mi NNW 11.5 mph 24.2 mph N/A   Overcast
8:25 PM 39.2 °F 31.2 °F 33.8 °F 81% 29.65 in 10.0 mi NNW 13.8 mph 25.3 mph N/A   Overcast
8:53 PM 39.0 °F 31.8 °F 33.1 °F 79% 29.68 in 10.0 mi NW 11.5 mph 19.6 mph N/A   Overcast
9:53 PM 37.9 °F 29.2 °F 33.1 °F 83% 29.68 in 10.0 mi NW 15.0 mph 23.0 mph N/A   Overcast
10:53 PM 39.0 °F 31.8 °F 33.1 °F 79% 29.68 in 10.0 mi NW 11.5 mph 21.9 mph N/A   Overcast
11:06 PM 39.2 °F 31.6 °F 32.0 °F 75% 29.64 in 10.0 mi NW 12.7 mph 23.0 mph N/A   Overcast
11:50 PM 37.4 °F 29.8 °F 32.0 °F 81% 29.64 in 10.0 mi NW 11.5 mph 20.7 mph N/A   Overcast
11:53 PM 37.9 °F 30.5 °F 32.0 °F 79% 29.67 in 10.0 mi NW 11.5 mph 20.7 mph N/A   Overcast